CW7783 Weather Reports


time (UTC)temp
C
wind
direction
speed
KPH
gust
KPH
rain 1hr
cm
rain 24hr
cm
rain mn
cm
humidity
%
barometer
mb
20260503053237 14 16 3.2 6.4 0.00 0.00 0.00 74 1019.5
20260503052720 13 355 3.2 6.4 0.00 0.00 0.00 74 1019.5
20260503052232 13 343 1.6 6.4 0.00 0.00 0.00 76 1019.4
20260503051746 13 9 3.2 6.4 0.00 0.00 0.00 77 1019.4
20260503051235 12 9 3.2 6.4 0.00 0.00 0.00 79 1019.4
20260503050732 12 360 3.2 6.4 0.00 0.00 0.00 80 1019.4
20260503050242 11 355 3.2 6.4 0.00 0.00 0.00 80 1019.4
20260503045808 11 360 1.6 4.8 0.00 0.00 0.00 80 1019.3
20260503045234 11 339 1.6 4.8 0.00 0.00 0.00 80 1019.4
20260503044748 11 342 3.2 4.8 0.00 0.00 0.00 80 1019.4
20260503044251 11 346 3.2 4.8 0.00 0.00 0.00 80 1019.4
20260503043722 11 329 3.2 8.0 0.00 0.00 0.00 80 1019.5
20260503043235 11 316 4.8 8.0 0.00 0.00 0.00 80 1019.5
20260503042747 11 342 4.8 6.4 0.00 0.00 0.00 79 1019.4
20260503042236 11 309 1.6 4.8 0.00 0.00 0.00 79 1019.4
20260503041749 11 333 3.2 4.8 0.00 0.00 0.00 79 1019.4
20260503041245 11 333 3.2 6.4 0.00 0.00 0.00 79 1019.3
20260503040802 11 336 3.2 6.4 0.00 0.00 0.00 79 1019.3
20260503040243 11 331 3.2 6.4 0.00 0.00 0.00 79 1019.4
20260503035758 11 346 3.2 6.4 0.00 0.00 0.00 79 1019.3
20260503035249 11 338 1.6 6.4 0.00 0.00 0.00 79 1019.4
20260503034732 11 323 3.2 8.0 0.00 0.00 0.00 79 1019.4
20260503034225 11 360 4.8 8.0 0.00 0.00 0.00 79 1019.4
20260503033732 11 323 4.8 6.4 0.00 0.00 0.00 79 1019.3
20260503033224 11 313 3.2 6.4 0.00 0.00 0.00 79 1019.4
20260503032729 11 318 3.2 6.4 0.00 0.00 0.00 79 1019.3
20260503032222 11 347 3.2 6.4 0.00 0.00 0.00 79 1019.3
20260503031734 10 355 4.8 6.4 0.00 0.00 0.00 79 1019.5
20260503031226 10 346 4.8 6.4 0.00 0.00 0.00 79 1019.5
20260503030735 11 333 3.2 6.4 0.00 0.00 0.00 79 1019.5
20260503030219 11 328 3.2 4.8 0.00 0.00 0.00 78 1019.4
20260503025735 11 328 1.6 4.8 0.00 0.00 0.00 78 1019.4
20260503025228 11 325 3.2 4.8 0.00 0.00 0.00 78 1019.5
20260503024730 11 330 3.2 4.8 0.00 0.00 0.00 78 1019.5
20260503024243 11 340 3.2 4.8 0.00 0.00 0.00 78 1019.4
20260503023731 11 334 3.2 6.4 0.00 0.00 0.00 77 1019.5
20260503023222 11 344 3.2 6.4 0.00 0.00 0.00 77 1019.5
20260503022734 11 329 3.2 4.8 0.00 0.00 0.00 77 1019.7
20260503022246 11 349 3.2 4.8 0.00 0.00 0.00 77 1019.7
20260503021731 11 338 3.2 6.4 0.00 0.00 0.00 77 1019.7
20260503021244 11 331 3.2 6.4 0.00 0.00 0.00 77 1019.7
20260503020733 11 329 4.8 6.4 0.00 0.00 0.00 76 1019.7
20260503020223 11 311 3.2 4.8 0.00 0.00 0.00 76 1019.8
20260503015735 11 335 1.6 4.8 0.00 0.00 0.00 75 1019.7
20260503015224 11 339 3.2 4.8 0.00 0.00 0.00 75 1019.8
20260503014736 11 41 0.0 4.8 0.00 0.00 0.00 74 1019.7
20260503014219 11 30 1.6 6.4 0.00 0.00 0.00 74 1019.7
20260503013733 11 29 1.6 6.4 0.00 0.00 0.00 74 1019.8
20260503013247 11 351 3.2 6.4 0.00 0.00 0.00 74 1019.7
20260503012757 11 13 3.2 6.4 0.00 0.00 0.00 73 1019.8
20260503012220 11 10 3.2 6.4 0.00 0.00 0.00 74 1019.8
20260503011734 11 5 3.2 6.4 0.00 0.00 0.00 73 1019.9
20260503011248 11 332 4.8 6.4 0.00 0.00 0.00 73 1019.9
20260503010728 11 28 1.6 4.8 0.00 0.00 0.00 73 1020.0
20260503010239 11 14 1.6 4.8 0.00 0.00 0.00 73 1020.1
20260503005722 11 20 1.6 4.8 0.00 0.00 0.00 73 1020.1
20260503005256 11 11 3.2 6.4 0.00 0.00 0.00 73 1020.1
20260503004743 11 326 4.8 6.4 0.00 0.00 0.00 73 1020.2
20260503004225 11 336 4.8 6.4 0.00 0.00 0.00 73 1020.2
20260503003738 11 355 4.8 6.4 0.00 0.00 0.00 73 1020.2
20260503003251 12 344 4.8 6.4 0.00 0.00 0.00 73 1020.2
20260503002742 12 327 3.2 4.8 0.00 0.00 0.00 73 1020.3
20260503002226 12 336 3.2 4.8 0.00 0.00 0.00 73 1020.4
20260503001739 12 350 1.6 6.4 0.00 0.00 0.00 73 1020.4
20260503001232 12 336 3.2 6.4 0.00 0.00 0.00 73 1020.4
20260503000741 12 336 3.2 4.8 0.00 0.00 0.00 72 1020.5
20260503000240 12 344 3.2 4.8 0.00 0.00 0.00 72 1020.5
20260502235743 12 355 0.0 0.0 0.00 0.00 0.00 73 1020.6
20260502235232 12 355 0.0 0.0 0.00 0.00 0.00 72 1020.6
20260502234724 12 355 0.0 3.2 0.00 0.00 0.00 72 1020.7
20260502234222 12 5 1.6 6.4 0.00 0.00 0.00 72 1020.7
20260502233735 12 346 1.6 6.4 0.00 0.00 0.00 72 1020.7
20260502233248 12 18 3.2 6.4 0.00 0.00 0.00 72 1020.8
20260502232731 12 20 3.2 6.4 0.00 0.00 0.00 73 1020.9
20260502232245 12 347 3.2 4.8 0.00 0.00 0.00 73 1020.8
20260502231736 12 350 0.0 4.8 0.00 0.00 0.00 73 1020.9
20260502231241 12 355 3.2 4.8 0.00 0.00 0.00 73 1021.0
20260502230750 12 346 1.6 3.2 0.00 0.00 0.00 73 1021.0
20260502230227 12 344 0.0 4.8 0.00 0.00 0.00 72 1020.9
20260502225759 12 344 1.6 4.8 0.00 0.00 0.00 72 1021.0
20260502225233 12 335 1.6 4.8 0.00 0.00 0.00 72 1021.0
20260502224746 12 333 1.6 4.8 0.00 0.00 0.00 72 1021.0
20260502224230 12 346 3.2 4.8 0.00 0.00 0.00 72 1021.0
20260502223737 12 331 3.2 6.4 0.00 0.00 0.00 72 1021.0
20260502223235 12 333 3.2 6.4 0.00 0.00 0.00 72 1021.0
20260502222725 12 338 3.2 4.8 0.00 0.00 0.00 72 1021.0
20260502222236 12 346 3.2 4.8 0.00 0.00 0.00 72 1021.0
20260502221733 12 338 3.2 4.8 0.00 0.00 0.00 72 1021.0
20260502221226 12 335 3.2 6.4 0.00 0.00 0.00 72 1021.0
20260502220734 12 338 3.2 6.4 0.00 0.00 0.00 73 1021.1
20260502220248 12 339 3.2 4.8 0.00 0.00 0.00 73 1021.0
20260502215741 12 338 3.2 4.8 0.00 0.00 0.00 73 1021.0
20260502215222 12 331 3.2 4.8 0.00 0.00 0.00 73 1021.0
20260502214800 12 336 3.2 4.8 0.00 0.00 0.00 72 1021.0
20260502214222 12 330 3.2 4.8 0.00 0.00 0.00 73 1021.0
20260502213752 12 336 3.2 4.8 0.00 0.00 0.00 73 1021.0
20260502213224 12 355 1.6 4.8 0.00 0.00 0.00 73 1021.1
20260502212737 12 339 1.6 4.8 0.00 0.00 0.00 73 1021.1
20260502212222 12 327 1.6 3.2 0.00 0.00 0.00 73 1021.1
20260502211735 12 327 1.6 3.2 0.00 0.00 0.00 73 1021.1
20260502211246 12 327 3.2 3.2 0.00 0.00 0.00 73 1021.2
20260502210734 12 323 0.0 0.0 0.00 0.00 0.00 73 1021.1
20260502210246 13 323 0.0 3.2 0.00 0.00 0.00 72 1021.1
20260502205727 13 323 0.0 3.2 0.00 0.00 0.00 72 1021.1
20260502205219 13 323 1.6 3.2 0.00 0.00 0.00 72 1021.1
20260502204733 13 321 3.2 3.2 0.00 0.00 0.00 71 1021.1
20260502204247 13 321 1.6 3.2 0.00 0.00 0.00 71 1021.1
20260502203731 13 321 1.6 3.2 0.00 0.00 0.00 71 1021.2
20260502203301 13 316 1.6 4.8 0.00 0.00 0.00 70 1021.1
20260502202730 13 328 1.6 4.8 0.00 0.00 0.00 68 1021.2
20260502202243 13 328 1.6 4.8 0.00 0.00 0.00 68 1021.1
20260502201727 13 323 3.2 4.8 0.00 0.00 0.00 67 1021.1
20260502201239 13 323 0.0 3.2 0.00 0.00 0.00 65 1021.1
20260502200747 14 323 1.6 3.2 0.00 0.00 0.00 64 1021.0
20260502200220 14 323 0.0 3.2 0.00 0.00 0.00 63 1020.9
20260502195730 15 323 0.0 3.2 0.00 0.00 0.00 62 1020.9
20260502195235 15 323 1.6 3.2 0.00 0.00 0.00 61 1020.9
20260502194810 15 211 0.0 0.0 0.00 0.00 0.00 62 1020.9
20260502194300 15 211 0.0 0.0 0.00 0.00 0.00 62 1020.9
20260502193723 15 211 0.0 0.0 0.00 0.00 0.00 62 1020.9
20260502193234 15 211 0.0 0.0 0.00 0.00 0.00 62 1020.8
20260502192744 16 211 0.0 0.0 0.00 0.00 0.00 61 1020.9
20260502192237 16 211 0.0 0.0 0.00 0.00 0.00 60 1020.8
20260502191730 16 211 0.0 0.0 0.00 0.00 0.00 58 1020.8
20260502191236 16 211 0.0 0.0 0.00 0.00 0.00 57 1020.9
20260502190726 16 211 0.0 0.0 0.00 0.00 0.00 56 1020.9
20260502190240 16 211 0.0 0.0 0.00 0.00 0.00 56 1020.9
20260502185752 17 211 0.0 0.0 0.00 0.00 0.00 55 1020.7
20260502185244 17 211 0.0 0.0 0.00 0.00 0.00 56 1020.7
20260502184727 17 211 0.0 0.0 0.00 0.00 0.00 54 1020.7
20260502184220 18 211 0.0 0.0 0.00 0.00 0.00 53 1020.6
20260502183732 18 211 0.0 0.0 0.00 0.00 0.00 52 1020.8
20260502183242 18 211 0.0 1.6 0.00 0.00 0.00 50 1020.6
20260502182747 19 200 0.0 1.6 0.00 0.00 0.00 48 1020.6
20260502182224 19 200 0.0 4.8 0.00 0.00 0.00 45 1020.6
20260502181757 20 200 3.2 4.8 0.00 0.00 0.00 44 1020.6
20260502181228 20 200 1.6 4.8 0.00 0.00 0.00 44 1020.6
20260502180732 20 200 0.0 4.8 0.00 0.00 0.00 44 1020.6
20260502180246 20 200 1.6 4.8 0.00 0.00 0.00 43 1020.6
20260502170248 21 236 3.2 8.0 0.00 0.00 0.00 39 1020.4
20260502164241 22 178 0.0 8.0 0.00 0.00 0.00 39 1020.5
20260502163732 22 186 1.6 8.0 0.00 0.00 0.00 40 1020.5
20260502163246 22 295 0.0 9.7 0.00 0.00 0.00 40 1020.6
20260502162731 22 355 3.2 11.3 0.00 0.00 0.00 38 1020.7
20260502162242 22 227 6.4 9.7 0.00 0.00 0.00 38 1020.7
20260502161754 22 283 3.2 8.0 0.00 0.00 0.00 38 1020.8
20260502161246 22 178 4.8 8.0 0.00 0.00 0.00 37 1020.9
20260502160734 22 264 1.6 9.7 0.00 0.00 0.00 37 1021.0
20260502160228 22 201 4.8 12.9 0.00 0.00 0.00 37 1020.9
20260502152224 23 242 4.8 14.5 0.00 0.00 0.00 35 1021.2
20260502151757 23 175 3.2 20.9 0.00 0.00 0.00 36 1021.3
20260502151230 23 193 8.0 19.3 0.00 0.00 0.00 35 1021.3
20260502150740 23 178 8.0 14.5 0.00 0.00 0.00 36 1021.3
20260502150252 23 199 6.4 12.9 0.00 0.00 0.00 36 1021.4
20260502130732 22 195 1.6 11.3 0.00 0.00 0.00 42 1023.1
20260502130246 22 181 6.4 14.5 0.00 0.00 0.00 39 1023.0
20260502123741 22 344 6.4 12.9 0.00 0.00 0.00 41 1023.4
20260502123231 22 327 3.2 14.5 0.00 0.00 0.00 38 1023.6
20260502122735 22 202 8.0 14.5 0.00 0.00 0.00 38 1023.7
20260502122229 22 162 4.8 14.5 0.00 0.00 0.00 39 1023.7
20260502121742 22 257 6.4 14.5 0.00 0.00 0.00 39 1023.8
20260502121233 22 260 6.4 16.1 0.00 0.00 0.00 38 1023.8
20260502120742 22 197 6.4 16.1 0.00 0.00 0.00 38 1023.9
20260502120255 22 195 6.4 12.9 0.00 0.00 0.00 41 1023.9
20260502115736 22 215 6.4 11.3 0.00 0.00 0.00 40 1024.0
20260502115230 22 160 1.6 9.7 0.00 0.00 0.00 40 1024.1
20260502114744 21 166 4.8 14.5 0.00 0.00 0.00 42 1024.0
20260502114246 21 167 4.8 14.5 0.00 0.00 0.00 42 1024.1
20260502113730 21 15 3.2 14.5 0.00 0.00 0.00 40 1024.3
20260502113223 21 246 6.4 16.1 0.00 0.00 0.00 41 1024.4
20260502112737 21 199 9.7 16.1 0.00 0.00 0.00 40 1024.4
20260502112247 21 355 3.2 12.9 0.00 0.00 0.00 41 1024.5
20260502111727 21 309 6.4 12.9 0.00 0.00 0.00 43 1024.7
20260502111259 21 299 1.6 8.0 0.00 0.00 0.00 41 1024.7
20260502110743 21 119 1.6 11.3 0.00 0.00 0.00 41 1024.7
20260502110230 21 290 3.2 11.3 0.00 0.00 0.00 39 1024.9
20260502105737 21 218 4.8 14.5 0.00 0.00 0.00 44 1024.9
20260502105247 21 226 8.0 14.5 0.00 0.00 0.00 42 1025.0
20260502104739 21 205 1.6 12.9 0.00 0.00 0.00 41 1025.1
20260502104236 21 138 3.2 16.1 0.00 0.00 0.00 43 1025.2
20260502103721 21 211 4.8 14.5 0.00 0.00 0.00 44 1025.3
20260502103233 20 232 9.7 24.1 0.00 0.00 0.00 44 1025.4
20260502102745 20 277 9.7 24.1 0.00 0.00 0.00 44 1025.4
20260502102230 21 275 6.4 11.3 0.00 0.00 0.00 42 1025.4
20260502101803 20 192 4.8 9.7 0.00 0.00 0.00 46 1025.4
20260502101225 20 185 6.4 16.1 0.00 0.00 0.00 43 1025.6
20260502100728 20 173 6.4 16.1 0.00 0.00 0.00 44 1025.6
20260502100220 20 228 3.2 11.3 0.00 0.00 0.00 46 1025.7
20260502091324 20 184 6.4 11.3 0.00 0.00 0.00 47 1026.2
20260502090722 20 223 4.8 8.0 0.00 0.00 0.00 47 1026.2
20260502090236 20 159 3.2 9.7 0.00 0.00 0.00 47 1026.3
20260502071221 17 60 1.6 3.2 0.00 0.00 0.00 53 1026.5
20260502070729 17 44 0.0 4.8 0.00 0.00 0.00 53 1026.5
20260502070220 17 72 3.2 4.8 0.00 0.00 0.00 59 1026.5
20260502065729 17 66 1.6 4.8 0.00 0.00 0.00 63 1026.5
20260502065243 16 46 1.6 3.2 0.00 0.00 0.00 62 1026.5
20260502064722 16 90 0.0 3.2 0.00 0.00 0.00 64 1026.6
20260502064252 16 295 1.6 4.8 0.00 0.00 0.00 65 1026.6
20260502063724 16 300 1.6 4.8 0.00 0.00 0.00 66 1026.6
20260502063237 15 311 3.2 4.8 0.00 0.00 0.00 68 1026.5
20260502062722 15 5 3.2 6.4 0.00 0.00 0.00 69 1026.6
20260502062233 15 13 4.8 6.4 0.00 0.00 0.00 69 1026.6
20260502061742 14 355 3.2 8.0 0.00 0.00 0.00 70 1026.5
20260502061234 14 9 4.8 8.0 0.00 0.00 0.00 70 1026.5
20260502060723 13 360 4.8 6.4 0.00 0.00 0.00 71 1026.6
20260502060257 13 51 4.8 6.4 0.00 0.00 0.00 72 1026.5
20260502055747 13 340 4.8 6.4 0.00 0.00 0.00 72 1026.6
20260502055230 13 11 4.8 6.4 0.00 0.00 0.00 74 1026.6
20260502054724 12 34 3.2 6.4 0.00 0.00 0.00 75 1026.6
20260502054258 12 346 3.2 6.4 0.00 0.00 0.00 76 1026.6
20260502053751 12 336 3.2 6.4 0.00 0.00 0.00 78 1026.6